Total_Precipitation_Accumulation
0.92 0.95 1.07 1.18 1.18 1.16 1.16 1.13 1.24 1.29 1.32 1.35 1.38 1.40 1.39 1.48 1.71 1.96 1.88 1.84 1.87 1.93 2.00 2.15 2.23 2.38 2.37 2.24 2.21 2.19 2.26 2.40 2.19 1.84 1.71 1.65 1.51 1.34 1.31 1.23 1.14 1.12 1.08
0.71 0.78 0.88 1.00 1.02 1.03 1.06 1.19 1.28 1.26 1.20 1.12 1.17 1.24 1.23 1.35 1.61 1.92 2.07 2.09 2.14 2.10 2.17 2.35 2.39 2.41 2.36 2.25 2.27 2.24 2.20 2.35 2.23 1.94 1.84 1.71 1.59 1.42 1.34 1.27 1.10 1.04 1.07
0.65 0.67 0.74 0.88 1.01 1.07 1.12 1.19 1.28 1.31 1.26 1.24 1.25 1.25 1.39 1.49 1.54 1.71 1.90 1.99 2.05 2.05 2.19 2.23 2.21 2.28 2.22 2.20 2.10 2.07 2.07 2.23 2.35 2.13 2.05 2.03 1.86 1.65 1.54 1.39 1.23 1.22 1.04
0.53 0.63 0.73 0.87 1.06 1.17 1.21 1.27 1.33 1.37 1.33 1.37 1.38 1.43 1.53 1.56 1.53 1.63 1.79 1.91 1.97 2.00 2.08 2.15 2.21 2.19 2.23 2.32 2.20 2.18 2.28 2.39 2.45 2.37 2.27 2.33 2.20 1.95 1.75 1.54 1.37 1.28 1.18
0.65 0.74 0.83 0.98 1.05 1.13 1.28 1.37 1.45 1.47 1.39 1.47 1.55 1.54 1.52 1.45 1.41 1.64 1.77 1.78 1.94 2.00 1.99 1.94 2.03 2.21 2.28 2.31 2.13 2.20 2.33 2.32 2.29 2.31 2.26 2.36 2.33 2.15 1.82 1.56 1.47 1.43 1.32
0.89 0.98 1.04 1.10 1.19 1.21 1.26 1.30 1.43 1.48 1.54 1.65 1.69 1.70 1.61 1.41 1.61 1.72 1.73 1.79 1.88 1.93 1.92 1.82 1.75 1.76 1.84 1.96 1.97 1.94 1.99 2.06 2.14 2.15 2.18 2.25 2.26 2.13 1.92 1.73 1.61 1.51 1.43
1.16 1.34 1.36 1.34 1.39 1.39 1.41 1.41 1.45 1.59 1.70 1.73 1.70 1.71 1.68 1.73 1.75 1.57 1.51 1.45 1.51 1.58 1.58 1.54 1.35 1.27 1.53 1.63 1.78 1.77 1.66 1.64 1.68 1.84 1.96 1.98 2.12 2.15 2.12 1.91 1.85 1.73 1.56
1.38 1.52 1.64 1.67 1.73 1.77 1.83 1.80 1.83 1.87 1.94 1.90 1.81 1.81 1.87 1.89 1.88 1.61 1.49 1.36 1.36 1.36 1.35 1.31 1.32 1.33 1.41 1.53 1.57 1.55 1.50 1.45 1.46 1.47 1.57 1.77 1.96 2.14 2.15 2.05 2.03 1.90 1.70
1.66 1.78 1.88 1.94 1.97 1.97 1.97 2.06 2.14 2.25 2.27 2.17 2.11 2.14 2.17 2.26 2.25 1.93 1.78 1.55 1.49 1.42 1.44 1.49 1.50 1.38 1.43 1.39 1.38 1.38 1.36 1.41 1.44 1.43 1.43 1.61 1.78 1.90 2.08 2.07 2.00 1.89 1.70
1.75 1.87 2.05 2.16 2.21 2.17 2.18 2.33 2.48 2.60 2.57 2.55 2.57 2.59 2.54 2.52 2.48 2.11 1.97 1.76 1.75 1.70 1.71 1.61 1.52 1.36 1.30 1.24 1.23 1.30 1.24 1.26 1.39 1.41 1.38 1.46 1.59 1.72 1.91 1.89 1.82 1.83 1.68
2.01 2.05 2.10 2.21 2.36 2.40 2.46 2.53 2.69 2.79 2.77 2.72 2.65 2.60 2.51 2.50 2.43 2.12 1.95 1.77 1.78 1.81 1.74 1.66 1.56 1.41 1.23 1.19 1.13 1.13 1.16 1.22 1.30 1.35 1.43 1.51 1.64 1.76 1.78 1.78 1.79 1.71 1.66
2.28 2.37 2.37 2.37 2.30 2.29 2.50 2.64 2.76 2.91 2.88 2.80 2.80 2.67 2.56 2.48 2.26 2.02 1.85 1.75 1.82 1.87 1.83 1.75 1.67 1.52 1.27 1.18 1.05 1.04 1.07 1.02 1.13 1.24 1.31 1.42 1.55 1.70 1.81 1.88 1.89 1.77 1.61
2.24 2.27 2.35 2.39 2.41 2.42 2.56 2.69 2.83 2.87 2.78 2.64 2.62 2.58 2.47 2.37 2.27 2.03 1.80 1.70 1.72 1.71 1.82 1.90 1.73 1.55 1.35 1.21 1.17 1.13 1.04 0.97 1.10 1.22 1.21 1.25 1.35 1.53 1.81 2.01 2.10 2.05 1.77
1.93 1.98 2.01 2.13 2.25 2.43 2.63 2.66 2.68 2.71 2.69 2.65 2.60 2.52 2.47 2.43 2.41 2.19 1.93 1.72 1.69 1.73 1.79 1.83 1.69 1.55 1.36 1.23 1.23 1.14 1.00 0.98 1.07 1.16 1.22 1.28 1.39 1.52 1.68 1.87 2.08 2.12 1.93
1.73 1.78 1.91 2.00 2.12 2.29 2.51 2.64 2.54 2.50 2.64 2.52 2.34 2.23 2.16 2.09 2.16 2.05 1.80 1.69 1.67 1.76 1.82 1.87 1.79 1.69 1.57 1.44 1.36 1.34 1.29 1.23 1.16 1.17 1.30 1.36 1.39 1.38 1.45 1.60 1.84 1.95 1.80
1.57 1.59 1.63 1.68 1.80 1.95 2.11 2.24 2.21 1.96 1.97 1.84 1.65 1.50 1.43 1.45 1.51 1.43 1.32 1.28 1.33 1.48 1.58 1.75 1.78 1.68 1.60 1.56 1.53 1.48 1.43 1.35 1.29 1.27 1.29 1.33 1.33 1.35 1.40 1.49 1.62 1.73 1.68
1.64 1.57 1.56 1.59 1.69 1.74 1.78 1.83 1.86 1.72 1.54 1.43 1.26 1.09 1.00 1.01 1.09 1.13 1.16 1.17 1.22 1.26 1.32 1.51 1.54 1.50 1.49 1.51 1.49 1.40 1.31 1.33 1.38 1.33 1.27 1.31 1.36 1.37 1.40 1.48 1.54 1.64 1.67
1.91 1.83 1.70 1.64 1.65 1.61 1.60 1.63 1.70 1.71 1.60 1.39 1.17 0.96 0.84 0.83 0.92 1.07 1.23 1.17 1.18 1.17 1.17 1.29 1.33 1.36 1.42 1.47 1.47 1.45 1.39 1.41 1.44 1.40 1.38 1.40 1.48 1.49 1.47 1.49 1.56 1.60 1.65
1.82 1.80 1.68 1.65 1.68 1.76 1.72 1.69 1.73 1.72 1.74 1.66 1.39 1.12 0.97 0.92 0.98 1.13 1.20 1.10 1.14 1.15 1.17 1.26 1.31 1.32 1.37 1.44 1.46 1.46 1.47 1.50 1.48 1.49 1.49 1.50 1.58 1.64 1.53 1.46 1.52 1.61 1.59
1.49 1.55 1.49 1.49 1.51 1.63 1.67 1.64 1.64 1.68 1.67 1.63 1.47 1.21 0.96 0.86 0.88 1.07 1.16 1.21 1.26 1.28 1.30 1.30 1.38 1.41 1.40 1.39 1.42 1.43 1.45 1.48 1.48 1.47 1.52 1.58 1.62 1.64 1.53 1.50 1.50 1.56 1.52
1.30 1.29 1.24 1.27 1.35 1.44 1.52 1.52 1.49 1.48 1.50 1.49 1.39 1.11 0.89 0.81 0.91 1.05 1.17 1.26 1.30 1.33 1.35 1.35 1.36 1.31 1.31 1.35 1.38 1.38 1.44 1.46 1.46 1.46 1.51 1.57 1.59 1.58 1.54 1.52 1.51 1.52 1.55
1.25 1.20 1.05 1.07 1.25 1.32 1.32 1.39 1.37 1.33 1.33 1.35 1.25 1.02 0.90 0.86 0.97 1.10 1.25 1.30 1.30 1.30 1.28 1.28 1.27 1.25 1.23 1.27 1.33 1.38 1.42 1.42 1.40 1.40 1.43 1.47 1.49 1.48 1.48 1.49 1.51 1.55 1.57
1.08 1.10 0.99 0.98 1.11 1.13 1.17 1.32 1.36 1.35 1.36 1.34 1.18 1.05 0.99 1.05 1.14 1.24 1.34 1.34 1.26 1.22 1.21 1.21 1.19 1.18 1.13 1.14 1.19 1.24 1.32 1.35 1.32 1.32 1.36 1.35 1.36 1.36 1.34 1.34 1.37 1.45 1.50
0.83 0.94 0.90 0.85 0.90 0.99 1.11 1.26 1.35 1.33 1.33 1.36 1.26 1.15 1.12 1.17 1.22 1.27 1.31 1.28 1.20 1.20 1.19 1.15 1.09 1.03 1.00 1.05 1.09 1.05 1.02 1.03 1.03 1.09 1.17 1.20 1.26 1.31 1.29 1.27 1.32 1.38 1.48
0.78 0.89 0.83 0.76 0.77 0.87 1.02 1.16 1.23 1.22 1.20 1.18 1.10 1.03 1.02 1.07 1.12 1.11 1.09 1.07 1.04 1.03 0.98 0.96 0.96 0.93 0.87 0.81 0.81 0.79 0.81 0.79 0.76 0.80 0.92 1.04 1.09 1.20 1.28 1.33 1.40 1.47 1.51
0.76 0.83 0.82 0.73 0.71 0.80 0.96 1.05 1.11 1.16 1.17 1.13 1.08 1.05 1.05 1.06 1.01 0.96 0.95 0.95 0.95 0.94 0.90 0.86 0.84 0.79 0.76 0.71 0.68 0.70 0.68 0.65 0.63 0.69 0.74 0.83 0.96 1.09 1.17 1.22 1.27 1.40 1.49